Time,TemperatureF,DewpointF,PressureIn,WindDirection,WindDirectionDegrees,WindSpeedMPH,WindSpeedGustMPH,Humidity,HourlyPrecipIn,Conditions,Clouds,dailyrainin,SoftwareType,DateUTC
2013-07-11 00:02:00,67.1,35.5,29.76,WNW,299,0.0,3.0,31,0.00,,SKC,0.00,VWS V12.07,2013-07-11 07:02:00,
2013-07-11 01:01:00,66.4,34.9,29.75,WNW,301,1.0,7.0,31,0.00,,SKC,0.00,VWS V12.07,2013-07-11 08:01:00,
2013-07-11 02:01:00,66.4,34.9,29.74,NW,315,6.0,8.0,31,0.00,,SKC,0.00,VWS V12.07,2013-07-11 09:01:00,
2013-07-11 04:01:00,64.5,40.3,29.73,NW,308,0.0,9.0,41,0.00,,SKC,0.00,VWS V12.07,2013-07-11 11:01:00,
2013-07-11 05:01:00,64.7,47.7,29.73,WNW,282,1.0,1.0,54,0.00,,SKC,0.00,VWS V12.07,2013-07-11 12:01:00,
2013-07-11 06:01:00,62.6,45.2,29.75,NNW,333,4.0,6.0,53,0.01,,SKC,0.01,VWS V12.07,2013-07-11 13:01:00,
2013-07-11 07:01:00,60.7,49.3,29.75,NNW,331,7.0,7.0,66,0.02,,SKC,0.03,VWS V12.07,2013-07-11 14:01:00,
2013-07-11 08:01:00,63.1,49.5,29.76,North,5,12.0,12.0,61,0.00,,SKC,0.03,VWS V12.07,2013-07-11 15:01:00,
2013-07-11 09:02:00,63.4,48.8,29.76,NNE,16,1.0,7.0,59,0.00,,SKC,0.03,VWS V12.07,2013-07-11 16:02:00,
2013-07-11 10:02:00,62.6,49.0,29.77,NNE,17,9.0,10.0,61,0.00,,SKC,0.03,VWS V12.07,2013-07-11 17:02:00,
2013-07-11 11:01:00,63.7,49.6,29.77,NNE,24,4.0,5.0,60,0.00,,SKC,0.03,VWS V12.07,2013-07-11 18:01:00,
2013-07-11 12:01:00,63.4,50.2,29.77,North,5,0.0,0.0,62,0.00,,SKC,0.03,VWS V12.07,2013-07-11 19:01:00,
2013-07-11 13:01:00,64.5,52.9,29.77,NE,34,0.0,0.0,66,0.00,,SKC,0.03,VWS V12.07,2013-07-11 20:01:00,
2013-07-11 14:01:00,64.7,51.4,29.76,North,355,5.0,6.0,62,0.02,,SKC,0.05,VWS V12.07,2013-07-11 21:01:00,
2013-07-11 15:00:00,65.5,52.2,29.75,NE,34,5.0,8.0,62,0.00,,SKC,0.05,VWS V12.07,2013-07-11 22:00:00,
2013-07-11 16:02:00,65.8,50.2,29.75,NE,36,3.0,9.0,57,0.00,,SKC,0.05,VWS V12.07,2013-07-11 23:02:00,
2013-07-11 17:01:00,67.6,50.4,29.74,NW,325,0.0,0.0,54,0.00,,SKC,0.05,VWS V12.07,2013-07-12 00:01:00,
2013-07-11 18:01:00,67.4,50.2,29.72,North,355,5.0,6.0,54,0.00,,SKC,0.05,VWS V12.07,2013-07-12 01:01:00,
2013-07-11 20:01:00,64.3,51.9,29.73,NNW,339,0.0,2.0,64,0.00,,SKC,0.05,VWS V12.07,2013-07-12 03:01:00,
2013-07-11 21:01:00,63.4,52.7,29.74,NNW,344,0.0,0.0,68,0.00,,SKC,0.05,VWS V12.07,2013-07-12 04:01:00,
2013-07-11 22:02:00,63.1,53.6,29.75,WNW,300,1.0,2.0,71,0.00,,SKC,0.05,VWS V12.07,2013-07-12 05:02:00,
2013-07-11 23:01:00,62.3,51.6,29.74,WNW,294,1.0,1.0,68,0.00,,SKC,0.05,VWS V12.07,2013-07-12 06:01:00,